English version Home page |
Updated on June 18, 2002 |
プロフィール
|
軌道要素T 2002 Apr. 22.8985 TT MPC q 0.438299 (2000.0) P Q z +0.001048 Peri. 125.9001 -0.0697690 -0.3520107 Node 289.0294 +0.2288707 +0.9050648 e 0.999541 Incl. 80.8767 +0.9709534 -0.2386338 >From 156 observations 2002 Mar. 20-May 12.
|
星図
|
光度変化m1 = 9.5 + 5 logΔ + 10.0 log r [ ,-20] ( 〜2002年 4月 2日) m1 = 12.2 + 5 logΔ + 25.0 log r [-20, 16] (2002年 4月 2日〜2002年 5月 8日) m1 = 7.2 + 5 logΔ + 2.2 log r [ 16, 33] (2002年 5月 8日〜2002年 5月25日) m1 = 7.8 + 5 logΔ + 15.0 log r [ 33, ] (2002年 5月25日〜 )
|
軌道要素は Dr. Brian G. Marsden の計算によるもので、
M.P.E.C. 2002-K30
に掲載されたものです。
|